Regional Weather Roundup
Issued by NWS Albany, NY

Home | Current Version | Previous Version | Graphics & Text | Print | Product List | Glossary On
Versions: 1 2 3 4 5 6 7 8 9 10 11 12 13 14 15 16 17 18 19 20 21 22 23 24 25 26 27 28 29 30 31 32 33 34 35 36 37 38 39 40 41 42 43 44 45 46 47 48 49 50
000
ASUS41 KALY 292210
RWRALY

NEW YORK STATE HOURLY WEATHER ROUNDUP
NATIONAL WEATHER SERVICE ALBANY NY
600 PM EDT FRI JUL 29 2016

NOTE: "FAIR" INDICATES FEW OR NO CLOUDS BELOW 12,000 FEET WITH NO
SIGNIFICANT WEATHER AND/OR NO OBSTRUCTIONS TO VISIBILITY.

NYZ032-033-038>043-046>054-057>066-NYZ062>081-082-084-292300-
EAST


CITY           SKY/WX    TMP DP  RH WIND       PRES   REMARKS
ALBANY         MOSUNNY   85  59  41 N13       29.87R
GLENS FALLS    SUNNY     84  56  38 NE9       29.88R
POUGHKEEPSIE   MOSUNNY   88  64  44 NW6       29.83R
MONTGOMERY     LGT RAIN  75  71  87 W8        29.88R
WHITE PLAINS   MOSUNNY   79  68  69 S7        29.86R
ISLIP          MOSUNNY   82  65  56 E6        29.84S
NEW YORK CITY  MOSUNNY   85  69  58 NE7       29.84R
CENTRAL PARK   SUNNY     83  69  62 CALM      29.87R
$$

NYZ005>009-017-018-044>046-055-056-292300-
CENTRAL


CITY           SKY/WX    TMP DP  RH WIND       PRES   REMARKS
FULTON         SUNNY     85  55  35 N10       29.93F
SYRACUSE       MOSUNNY   82  55  39 NW13G23   29.91S
ROME           SUNNY     84  55  36 N10       29.91R
ELMIRA         SUNNY     86  59  39 NE9       29.92R
BINGHAMTON     MOSUNNY   83  57  41 N13G21    29.95R
MONTICELLO     SUNNY     81  64  57 N8        29.94R
$$

NYZ026>034-041>043-087-292300-
NORTH


CITY           SKY/WX    TMP DP  RH WIND       PRES   REMARKS
WATERTOWN      SUNNY     84  50  30 N9        29.93S
FORT DRUM      NOT AVBL
MASSENA        SUNNY     78  56  46 N8        29.96S
SARANAC LAKE   SUNNY     75  53  46 NW9       29.97S
PLATTSBURGH    MOSUNNY   79  59  50 N12       29.92S
$$

NYZ001>004-010>016-019>021-085-292300-
WEST


CITY           SKY/WX    TMP DP  RH WIND       PRES   REMARKS
NIAGARA FALLS  PTSUNNY   81  60  48 NE9       29.96R
BUFFALO        PTSUNNY   82  61  48 NE10      29.95R
DUNKIRK        PTSUNNY   81  68  64 N9        29.94S
JAMESTOWN      CLOUDY    73  66  78 NE7       29.99S
WELLSVILLE     LGT RAIN  76  62  62 VRB3      30.02R
ROCHESTER      PTSUNNY   82  58  43 NE12      29.95F
PENN YAN       SUNNY     82  57  42 VRB6      29.96R
$$

             KEY
       WCI = WIND CHILL INDEX
       VSB = VISIBILITY
       HX  = HEAT INDEX
$$



USA.gov is the U.S. government's official web portal to all federal, state and local government web resources and services.